sat.trackr.live / text

‹ back to catalog

CENTISPACE-1 S3

NORAD 53757 · 2022-108A

PAYLOAD ACTIVE UNKNOWN

§ Identity

Operator
Country
PRC
Launch date
2022-09-06
Launch site
JSC
Launch vehicle
Mass (kg)
RCS (m²)

External: N2YO · Heavens-Above · Gunter

§ Orbital elements

Epoch: 2026-05-25T03:45:34.990272Z

Period
98.55 min
Inclination
53.5309°
Eccentricity
0.0008258
Mean motion
14.61225406 rev/d
Perigee alt
683.4 km
Apogee alt
695.1 km
Semi-major
7,067.4 km
B*
5.1168e-5
RAAN
150.4899°
Arg perigee
286.2603°
Mean anomaly
73.7463°
Rev number
19,816

§ Raw data

CENTISPACE-1 S31 53757U 22108A   26145.15665498  .00000065  00000+0  51168-4 0  99972 53757  53.5309 150.4899 0008258 286.2603  73.7463 14.61225406198166

JSON: /api/v1/satellites/53757 · /tle

For live sub-satellite position, see the globe view (requires WebGL).

§ Visibility from observer

Set your observer location to see the next 7 days of passes ≥ 10°. The values pass through the URL so the page stays shareable.

No JS? Fill the form by hand. The geolocation button needs JavaScript.

§ Radio — SatNOGS DB

ModeDescriptionDownlinkUplink
FM GNSS B1C 1.575 GHz
FM GNSS B2A 1.176 GHz

2 transmitters · refreshed weekly from db.satnogs.org